W5MAI Weather Reports


Display with metric or nautical units.
time (UTC)temp
F
wind
direction
speed
MPH
gust
MPH
rain 1hr
in
rain 24hr
in
rain mn
in
humidity
%
barometer
mb
20230206093340 60 134 5.0 11.0 0.00 0.00 0.00 92 1019.4
20230206092413 60 128 8.0 15.0 0.00 0.00 0.00 92 1019.4
20230206090346 59 169 5.0 10.0 0.00 0.00 0.00 93 1019.5
20230206085416 59 215 5.0 11.0 0.00 0.00 0.00 93 1019.6
20230206084340 59 188 5.0 13.0 0.00 0.00 0.00 94 1019.7
20230206083409 59 205 6.0 11.0 0.00 0.00 0.00 94 1019.7
20230206082329 58 187 7.0 14.0 0.00 0.00 0.00 97 1019.8
20230206081406 57 171 4.0 10.0 0.00 0.00 0.00 96 1020.0
20230206080336 55 196 3.0 6.0 0.00 0.00 0.00 96 1020.3
20230206075331 53 323 0.0 1.0 0.00 0.00 0.00 95 1020.4
20230206074336 52 30 0.0 0.0 0.00 0.00 0.00 95 1020.5
20230206073325 52 30 0.0 0.0 0.00 0.00 0.00 94 1020.7
20230206072343 52 30 0.0 0.0 0.00 0.00 0.00 93 1020.8
20230206071332 52 30 0.0 0.0 0.00 0.00 0.00 93 1020.9
20230206070341 52 30 0.0 1.0 0.00 0.00 0.00 93 1020.9
20230206065330 52 30 0.0 2.0 0.00 0.00 0.00 92 1021.0
20230206064348 52 30 0.0 1.0 0.00 0.00 0.00 92 1021.0
20230206063336 52 30 0.0 1.0 0.00 0.00 0.00 91 1021.1
20230206062325 52 9 1.0 3.0 0.00 0.00 0.00 92 1021.2
20230206061359 53 192 0.0 2.0 0.00 0.00 0.00 90 1021.3
20230206060328 53 258 0.0 0.0 0.00 0.00 0.00 88 1021.5
20230206053358 56 258 0.0 2.0 0.00 0.00 0.00 89 1021.6
20230206052323 55 234 1.0 4.0 0.00 0.00 0.00 91 1021.7
20230206051359 54 232 2.0 4.0 0.00 0.00 0.00 94 1021.8
20230206050342 52 199 2.0 4.0 0.00 0.00 0.00 96 1021.6
20230206045411 50 218 2.0 3.0 0.00 0.00 0.00 95 1021.6
20230206044331 47 180 2.0 2.0 0.00 0.00 0.00 92 1021.7
20230206043405 47 180 1.0 2.0 0.00 0.00 0.00 91 1021.6
20230206042332 47 180 0.0 0.0 0.00 0.00 0.00 89 1021.6
20230206041414 47 180 0.0 0.0 0.00 0.00 0.00 89 1021.6
20230206040345 48 180 0.0 0.0 0.00 0.00 0.00 89 1021.6
20230206035409 48 180 0.0 0.0 0.00 0.00 0.00 88 1021.5
20230206034323 49 180 0.0 0.0 0.00 0.00 0.00 88 1021.5
20230206033407 49 180 0.0 0.0 0.00 0.00 0.00 87 1021.5
20230206032323 50 180 0.0 0.0 0.00 0.00 0.00 87 1021.5
20230206031343 50 180 0.0 0.0 0.00 0.00 0.00 86 1021.5
20230206030410 51 180 0.0 0.0 0.00 0.00 0.00 86 1021.7
20230206025327 51 180 0.0 2.0 0.00 0.00 0.00 86 1021.6
20230206024405 52 180 0.0 1.0 0.00 0.00 0.00 85 1021.7
20230206023336 53 180 0.0 1.0 0.00 0.00 0.00 84 1021.8
20230206022414 53 180 1.0 2.0 0.00 0.00 0.00 84 1021.9
20230206021403 54 180 0.0 2.0 0.00 0.00 0.00 83 1021.9
20230206020335 54 180 1.0 2.0 0.00 0.00 0.00 81 1021.9
20230206015412 55 180 1.0 2.0 0.00 0.00 0.00 81 1021.7
20230206014348 56 180 2.0 3.0 0.00 0.00 0.00 79 1021.7
20230206013418 56 180 1.0 2.0 0.00 0.00 0.00 78 1021.6
20230206012347 57 180 2.0 3.0 0.00 0.00 0.00 77 1021.6
20230206011417 58 153 1.0 2.0 0.00 0.00 0.00 76 1021.5
20230206010344 59 153 1.0 2.0 0.00 0.00 0.00 74 1021.5
20230206005418 60 153 1.0 2.0 0.00 0.00 0.00 72 1021.4
20230206004345 62 153 1.0 1.0 0.00 0.00 0.00 68 1021.4
20230206003327 64 153 0.0 1.0 0.00 0.00 0.00 64 1021.3
20230206002406 66 153 0.0 1.0 0.00 0.00 0.00 61 1021.4
20230206001346 67 153 0.0 1.0 0.00 0.00 0.00 58 1021.3
20230206000400 69 153 1.0 3.0 0.00 0.00 0.00 55 1021.3
20230205235326 70 149 2.0 3.0 0.00 0.00 0.00 53 1021.1
20230205234419 71 168 2.0 5.0 0.00 0.00 0.00 51 1021.2
20230205233349 71 180 4.0 7.0 0.00 0.00 0.00 51 1021.2
20230205232417 72 184 3.0 9.0 0.00 0.00 0.00 50 1021.2
20230205231340 72 184 5.0 9.0 0.00 0.00 0.00 50 1021.2
20230205230403 72 212 4.0 10.0 0.00 0.00 0.00 49 1021.1
20230205225333 73 146 4.0 8.0 0.00 0.00 0.00 49 1021.1
20230205224356 73 159 5.0 10.0 0.00 0.00 0.00 50 1021.3
20230205223338 73 119 2.0 9.0 0.00 0.00 0.00 50 1021.3
20230205222408 73 200 3.0 8.0 0.00 0.00 0.00 50 1021.2
20230205220352 73 211 5.0 10.0 0.00 0.00 0.00 47 1021.2
20230205215324 73 149 6.0 9.0 0.00 0.00 0.00 46 1021.1
20230205214348 73 167 5.0 10.0 0.00 0.00 0.00 47 1021.3
20230205213422 73 179 6.0 10.0 0.00 0.00 0.00 48 1021.5
20230205211347 72 174 5.0 9.0 0.00 0.00 0.00 48 1021.5
20230205210417 72 261 6.0 10.0 0.00 0.00 0.00 51 1021.6
20230205205339 72 169 5.0 10.0 0.00 0.00 0.00 52 1021.7
20230205204355 72 193 6.0 11.0 0.00 0.00 0.00 53 1021.8
20230205203342 72 188 3.0 10.0 0.00 0.00 0.00 53 1021.7
20230205202407 72 211 4.0 11.0 0.00 0.00 0.00 52 1021.7
20230205201345 72 239 3.0 9.0 0.00 0.00 0.00 56 1022.0
20230205200405 71 265 5.0 14.0 0.00 0.00 0.00 54 1022.0
20230205191421 70 241 7.0 14.0 0.00 0.00 0.00 57 1022.8
20230205190326 69 238 5.0 14.0 0.00 0.00 0.00 60 1023.3
20230205184332 69 199 6.0 15.0 0.00 0.00 0.00 61 1023.4
20230205183333 69 180 5.0 15.0 0.00 0.00 0.00 62 1023.8
20230205181333 68 175 6.0 12.0 0.00 0.00 0.00 61 1024.2
20230205180328 68 221 7.0 12.0 0.00 0.00 0.00 62 1024.5
20230205172414 66 202 7.0 13.0 0.00 0.00 0.00 67 1025.1
20230205171329 65 269 5.0 14.0 0.00 0.00 0.00 71 1025.2
20230205170403 64 240 5.0 12.0 0.00 0.00 0.00 71 1025.3
20230205165325 63 262 5.0 11.0 0.00 0.00 0.00 73 1025.5
20230205164411 62 225 4.0 10.0 0.00 0.00 0.00 76 1025.7
20230205163335 61 214 5.0 9.0 0.00 0.00 0.00 78 1025.9
20230205162411 58 184 3.0 8.0 0.00 0.00 0.00 83 1025.9
20230205161335 56 104 1.0 4.0 0.00 0.00 0.00 79 1025.8
20230205160415 54 65 1.0 3.0 0.00 0.00 0.00 82 1025.6
20230205153342 49 122 1.0 2.0 0.00 0.00 0.00 86 1025.6
20230205152415 47 144 0.0 2.0 0.00 0.00 0.00 89 1025.5
20230205151341 45 144 1.0 2.0 0.00 0.00 0.00 89 1025.7
20230205150324 44 219 1.0 2.0 0.00 0.00 0.00 91 1025.7
20230205145346 43 219 0.0 0.0 0.00 0.00 0.00 94 1025.8
20230205144331 41 219 0.0 0.0 0.00 0.00 0.00 97 1025.6
20230205143406 40 219 0.0 0.0 0.00 0.00 0.00 97 1025.7
20230205142322 37 219 0.0 0.0 0.00 0.00 0.00 96 1025.7
20230205141345 35 219 0.0 0.0 0.00 0.00 0.00 96 1025.6
20230205140411 34 219 0.0 0.0 0.00 0.00 0.00 96 1025.6
20230205135326 32 219 0.0 0.0 0.00 0.00 0.00 95 1025.6
20230205134406 32 219 0.0 0.0 0.00 0.00 0.00 94 1025.6
20230205133333 32 219 0.0 0.0 0.00 0.00 0.00 94 1025.6
20230205132407 32 219 0.0 0.0 0.00 0.00 0.00 94 1025.5
20230205131346 32 219 0.0 0.0 0.00 0.00 0.00 94 1025.3
20230205130417 32 219 0.0 0.0 0.00 0.00 0.00 94 1025.4
20230205125350 32 219 0.0 0.0 0.00 0.00 0.00 94 1025.4
20230205124422 32 219 0.0 0.0 0.00 0.00 0.00 94 1025.1
20230205122346 33 219 0.0 0.0 0.00 0.00 0.00 94 1025.2
20230205121323 33 219 0.0 0.0 0.00 0.00 0.00 94 1024.9
20230205114405 33 219 0.0 0.0 0.00 0.00 0.00 94 1024.9
20230205113341 33 219 0.0 0.0 0.00 0.00 0.00 94 1024.8
20230205112410 33 219 0.0 0.0 0.00 0.00 0.00 94 1024.8
20230205110341 33 219 0.0 2.0 0.00 0.00 0.00 94 1024.6
20230205105420 33 219 0.0 0.0 0.00 0.00 0.00 94 1024.7
20230205104334 33 219 0.0 0.0 0.00 0.00 0.00 94 1024.7
20230205103358 34 219 0.0 0.0 0.00 0.00 0.00 93 1024.6
20230205102333 34 219 0.0 0.0 0.00 0.00 0.00 94 1024.7
20230205101358 34 219 0.0 0.0 0.00 0.00 0.00 94 1024.6
20230205095358 34 219 0.0 0.0 0.00 0.00 0.00 94 1024.6
20230205094323 34 219 0.0 0.0 0.00 0.00 0.00 93 1024.7